sat.trackr.live / text

‹ back to catalog

BANDWAGON-2 OBJECT Y

NORAD 62399 · 2024-247Y

PAYLOAD ACTIVE UNKNOWN

§ Identity

Operator
Country
TBD
Launch date
2024-12-21
Launch site
AFWTR
Launch vehicle
Mass (kg)
RCS (m²)

External: N2YO · Heavens-Above · Gunter

§ Orbital elements

Epoch: 2026-09-22T17:39:41.092992Z

Period
92.56 min
Inclination
44.9921°
Eccentricity
0.0005667
Mean motion
15.55678987 rev/d
Perigee alt
396.3 km
Apogee alt
404.0 km
Semi-major
6,778.3 km
B*
5.3373e-4
RAAN
62.8874°
Arg perigee
251.4704°
Mean anomaly
108.5574°
Rev number
9,856

§ Raw data

BANDWAGON-2 OBJECT Y1 62399U 24247Y   26265.73589228  .00037403  00000+0  53373-3 0  99932 62399  44.9921  62.8874 0005667 251.4704 108.5574 15.55678987 98561

JSON: /api/v1/satellites/62399 · /tle

For live sub-satellite position, see the globe view (requires WebGL).

§ Visibility from observer

Set your observer location to see the next 7 days of passes ≥ 10°. The values pass through the URL so the page stays shareable.

No JS? Fill the form by hand. The geolocation button needs JavaScript.